"Sample Date","Sample Time","Sample Value","Units","Flow Rate","Sample Interval","Number Channels","Micron Size 0","Counts/Channel 0","Micron Size 1","Counts/Channel 1","Micron Size 2","Counts/Channel 2","Micron Size 3","Counts/Channel 3","Micron Size 4","Counts/Channel 4","Micron Size 5","Counts/Channel 5","Micron Size 6","Counts/Channel 6","Micron Size 7","Counts/Channel 7","Micron Size 8","Counts/Channel 8","Micron Size 9","Counts/Channel 9","Micron Size 10","Counts/Channel 10","Micron Size 11","Counts/Channel 11","Micron Size 12","Counts/Channel 12","Micron Size 13","Counts/Channel 13","Micron Size 14","Counts/Channel 14","Micron Size 15","Counts/Channel 15","Micron Size 16","Counts/Channel 16","Micron Size 17","Counts/Channel 17","Micron Size 18","Counts/Channel 18","Micron Size 19","Counts/Channel 19","Micron Size 20","Counts/Channel 20","Micron Size 21","Counts/Channel 21","Micron Size 22","Counts/Channel 22","Micron Size 23","Counts/Channel 23","Micron Size 24","Counts/Channel 24","Micron Size 25","Counts/Channel 25","Micron Size 26","Counts/Channel 26","Micron Size 27","Counts/Channel 27","Micron Size 28","Counts/Channel 28","Micron Size 29","Counts/Channel 29","Micron Size 30","Counts/Channel 30","Micron Size 31","Counts/Channel 31"
"04/01/08","17:00:00",14491.000,"cc",28334.043,6.00,6,0.100,12949.000,0.200,555.000,0.300,380.000,0.500,407.000,1.000,200.000,5.000,0
"04/01/08","17:00:06",14484.000,"cc",28285.023,6.00,6,0.100,12986.000,0.200,545.000,0.300,381.000,0.500,420.000,1.000,152.000,5.000,0
"04/01/08","17:00:12",14211.000,"cc",28364.207,6.00,6,0.100,12775.000,0.200,513.000,0.300,367.000,0.500,393.000,1.000,163.000,5.000,0
"04/01/08","17:00:18",14096.000,"cc",28299.945,6.00,6,0.100,12588.000,0.200,528.000,0.300,381.000,0.500,427.000,1.000,172.000,5.000,0
"04/01/08","17:00:24",14089.000,"cc",28306.402,6.00,6,0.100,12666.000,0.200,489.000,0.300,363.000,0.500,411.000,1.000,160.000,5.000,0
"04/01/08","17:00:30",14174.000,"cc",28250.184,6.00,6,0.100,12696.000,0.200,562.000,0.300,341.000,0.500,419.000,1.000,156.000,5.000,0
"04/01/08","17:00:36",14576.000,"cc",28311.910,6.00,6,0.100,13014.000,0.200,566.000,0.300,397.000,0.500,421.000,1.000,178.000,5.000,0
"04/01/08","17:00:42",14298.000,"cc",28363.813,6.00,6,0.100,12764.000,0.200,545.000,0.300,364.000,0.500,474.000,1.000,151.000,5.000,0
"04/01/08","17:00:48",14112.000,"cc",28293.119,6.00,6,0.100,12675.000,0.200,519.000,0.300,356.000,0.500,408.000,1.000,154.000,5.000,0
"04/01/08","17:00:54",14026.000,"cc",28381.898,6.00,6,0.100,12531.000,0.200,537.000,0.300,357.000,0.500,424.000,1.000,177.000,5.000,0
"04/01/08","17:01:00",14188.000,"cc",28319.418,6.00,6,0.100,12738.000,0.200,510.000,0.300,382.000,0.500,418.000,1.000,140.000,5.000,0
"04/01/08","17:01:06",13947.000,"cc",28309.740,6.00,6,0.100,12503.000,0.200,520.000,0.300,342.000,0.500,432.000,1.000,150.000,5.000,0
"04/01/08","17:01:12",14028.000,"cc",28291.229,6.00,6,0.100,12563.000,0.200,527.000,0.300,356.000,0.500,426.000,1.000,156.000,5.000,0
"04/01/08","17:01:18",13837.000,"cc",28307.934,6.00,6,0.100,12398.000,0.200,508.000,0.300,373.000,0.500,402.000,1.000,156.000,5.000,0
"04/01/08","17:01:24",13814.000,"cc",28337.772,6.00,6,0.100,12368.000,0.200,529.000,0.300,356.000,0.500,426.000,1.000,135.000,5.000,0
"04/01/08","17:01:30",13810.000,"cc",28275.820,6.00,6,0.100,12355.000,0.200,497.000,0.300,386.000,0.500,404.000,1.000,168.000,5.000,0
"04/01/08","17:01:36",13917.000,"cc",28286.344,6.00,6,0.100,12488.000,0.200,508.000,0.300,372.000,0.500,393.000,1.000,156.000,5.000,0
"04/01/08","17:01:42",13716.000,"cc",28329.051,6.00,6,0.100,12306.000,0.200,503.000,0.300,351.000,0.500,395.000,1.000,161.000,5.000,0
"04/01/08","17:01:48",13614.000,"cc",28319.098,6.00,6,0.100,12202.000,0.200,475.000,0.300,349.000,0.500,424.000,1.000,164.000,5.000,0
"04/01/08","17:01:54",13868.000,"cc",28338.783,6.00,6,0.100,12403.000,0.200,526.000,0.300,367.000,0.500,396.000,1.000,176.000,5.000,0
"04/01/08","17:02:00",13466.000,"cc",28330.123,6.00,6,0.100,11977.000,0.200,548.000,0.300,367.000,0.500,408.000,1.000,166.000,5.000,0
"04/01/08","17:02:06",13644.000,"cc",28308.373,6.00,6,0.100,12199.000,0.200,478.000,0.300,407.000,0.500,401.000,1.000,159.000,5.000,0
"04/01/08","17:02:12",13571.000,"cc",28330.619,6.00,6,0.100,12081.000,0.200,532.000,0.300,383.000,0.500,409.000,1.000,166.000,5.000,0
"04/01/08","17:02:18",13688.000,"cc",28337.022,6.00,6,0.100,12181.000,0.200,554.000,0.300,346.000,0.500,442.000,1.000,165.000,5.000,0
"04/01/08","17:02:24",14106.000,"cc",28258.941,6.00,6,0.100,12479.000,0.200,588.000,0.300,450.000,0.500,432.000,1.000,157.000,5.000,0
"04/01/08","17:02:30",13610.000,"cc",28333.688,6.00,6,0.100,11963.000,0.200,558.000,0.300,421.000,0.500,485.000,1.000,183.000,5.000,0
"04/01/08","17:02:36",30157.000,"cc",28426.811,6.00,6,0.100,27562.000,0.200,1566.000,0.300,439.000,0.500,441.000,1.000,149.000,5.000,0
"04/01/08","17:02:42",48768.000,"cc",28265.018,6.00,6,0.100,44989.000,0.200,2733.000,0.300,427.000,0.500,431.000,1.000,188.000,5.000,0
"04/01/08","17:02:48",37040.000,"cc",28354.647,6.00,6,0.100,33916.000,0.200,1996.000,0.300,462.000,0.500,493.000,1.000,173.000,5.000,0
"04/01/08","17:02:54",42461.000,"cc",28290.186,6.00,6,0.100,38834.000,0.200,2351.000,0.300,543.000,0.500,520.000,1.000,213.000,5.000,0
"04/01/08","17:03:00",46511.000,"cc",28364.813,6.00,6,0.100,42405.000,0.200,2791.000,0.300,596.000,0.500,514.000,1.000,205.000,5.000,0
"04/01/08","17:03:06",53562.000,"cc",28263.457,6.00,6,0.100,49049.000,0.200,3188.000,0.300,603.000,0.500,528.000,1.000,194.000,5.000,0
"04/01/08","17:03:12",87414.000,"cc",28257.391,6.00,6,0.100,80161.000,0.200,5717.000,0.300,730.000,0.500,601.000,1.000,205.000,5.000,0
"04/01/08","17:03:18",146938.000,"cc",28333.018,6.00,6,0.100,134584.000,0.200,10575.000,0.300,951.000,0.500,569.000,1.000,259.000,5.000,0
"04/01/08","17:03:24",209109.000,"cc",28349.801,6.00,6,0.100,191377.000,0.200,15911.000,0.300,1027.000,0.500,581.000,1.000,213.000,5.000,0
"04/01/08","17:03:30",190942.000,"cc",28308.090,6.00,6,0.100,175284.000,0.200,13869.000,0.300,1006.000,0.500,556.000,1.000,227.000,5.000,0
"04/01/08","17:03:36",151701.000,"cc",28326.611,6.00,6,0.100,139500.000,0.200,10643.000,0.300,827.000,0.500,533.000,1.000,198.000,5.000,0
"04/01/08","17:03:42",151578.000,"cc",28347.859,6.00,6,0.100,139150.000,0.200,10663.000,0.300,920.000,0.500,600.000,1.000,245.000,5.000,0
"04/01/08","17:03:48",209693.000,"cc",28358.457,6.00,6,0.100,191319.000,0.200,16307.000,0.300,1192.000,0.500,642.000,1.000,233.000,5.000,0
"04/01/08","17:03:54",230349.000,"cc",28293.934,6.00,6,0.100,208895.000,0.200,19273.000,0.300,1307.000,0.500,623.000,1.000,251.000,5.000,0
"04/01/08","17:04:00",282046.000,"cc",28286.625,6.00,6,0.100,244339.000,0.200,34843.000,0.300,1947.000,0.500,686.000,1.000,231.000,5.000,0
"04/01/08","17:04:06",311643.000,"cc",28327.057,6.00,6,0.100,270624.000,0.200,37926.000,0.300,2110.000,0.500,754.000,1.000,229.000,5.000,0
"04/01/08","17:04:12",307115.000,"cc",28338.289,6.00,6,0.100,265827.000,0.200,38274.000,0.300,2090.000,0.500,694.000,1.000,230.000,5.000,0
"04/01/08","17:04:18",150526.000,"cc",28285.953,6.00,6,0.100,89424.000,0.200,57374.000,0.300,2798.000,0.500,699.000,1.000,231.000,5.000,0
"04/01/08","17:04:24",247021.000,"cc",28291.410,6.00,6,0.100,172203.000,0.200,70474.000,0.300,3354.000,0.500,760.000,1.000,230.000,5.000,0
"04/01/08","17:04:30",218014.000,"cc",28370.205,6.00,6,0.100,119139.000,0.200,92956.000,0.300,4733.000,0.500,935.000,1.000,251.000,5.000,0
"04/01/08","17:04:36",205691.000,"cc",28383.529,6.00,6,0.100,115926.000,0.200,84421.000,0.300,4252.000,0.500,839.000,1.000,253.000,5.000,0
"04/01/08","17:04:42",172537.000,"cc",28341.244,6.00,6,0.100,100909.000,0.200,67375.000,0.300,3317.000,0.500,707.000,1.000,229.000,5.000,0
"04/01/08","17:04:48",224467.000,"cc",28322.924,6.00,6,0.100,121850.000,0.200,96213.000,0.300,5128.000,0.500,992.000,1.000,284.000,5.000,0
"04/01/08","17:04:54",201866.000,"cc",28268.926,6.00,6,0.100,117235.000,0.200,79651.000,0.300,3913.000,0.500,829.000,1.000,238.000,5.000,0
"04/01/08","17:05:00",231707.000,"cc",28256.451,6.00,6,0.100,116922.000,0.200,108156.000,0.300,5438.000,0.500,944.000,1.000,247.000,5.000,0
"04/01/08","17:05:06",225126.000,"cc",28332.588,6.00,6,0.100,117327.000,0.200,101541.000,0.300,5082.000,0.500,917.000,1.000,259.000,5.000,0
"04/01/08","17:05:12",229160.000,"cc",28297.592,6.00,6,0.100,159914.000,0.200,65143.000,0.300,3162.000,0.500,728.000,1.000,213.000,5.000,0
"04/01/08","17:05:18",238537.000,"cc",28328.602,6.00,6,0.100,168649.000,0.200,65778.000,0.300,3088.000,0.500,793.000,1.000,229.000,5.000,0
"04/01/08","17:05:24",165576.000,"cc",28382.186,6.00,6,0.100,99971.000,0.200,61595.000,0.300,2989.000,0.500,781.000,1.000,240.000,5.000,0
"04/01/08","17:05:30",208267.000,"cc",28298.082,6.00,6,0.100,124694.000,0.200,78678.000,0.300,3781.000,0.500,843.000,1.000,271.000,5.000,0
"04/01/08","17:05:36",263171.000,"cc",28294.469,6.00,6,0.100,204516.000,0.200,55033.000,0.300,2630.000,0.500,730.000,1.000,262.000,5.000,0
"04/01/08","17:05:42",358032.000,"cc",28283.272,6.00,6,0.100,308799.000,0.200,46103.000,0.300,2234.000,0.500,627.000,1.000,269.000,5.000,0
"04/01/08","17:05:48",153017.000,"cc",28335.688,6.00,6,0.100,88864.000,0.200,60294.000,0.300,2909.000,0.500,719.000,1.000,231.000,5.000,0
"04/01/08","17:05:54",164863.000,"cc",28294.580,6.00,6,0.100,98775.000,0.200,62035.000,0.300,3055.000,0.500,759.000,1.000,239.000,5.000,0
"04/01/08","17:06:00",214141.000,"cc",28332.690,6.00,6,0.100,153637.000,0.200,56841.000,0.300,2701.000,0.500,691.000,1.000,271.000,5.000,0
"04/01/08","17:06:06",322771.000,"cc",28279.022,6.00,6,0.100,290624.000,0.200,29549.000,0.300,1637.000,0.500,725.000,1.000,236.000,5.000,0
"04/01/08","17:06:12",284395.000,"cc",28323.203,6.00,6,0.100,247097.000,0.200,34493.000,0.300,1865.000,0.500,697.000,1.000,243.000,5.000,0
"04/01/08","17:06:18",344961.000,"cc",28320.473,6.00,6,0.100,310169.000,0.200,32048.000,0.300,1798.000,0.500,717.000,1.000,229.000,5.000,0
"04/01/08","17:06:24",287216.000,"cc",28280.004,6.00,6,0.100,249613.000,0.200,34881.000,0.300,1784.000,0.500,700.000,1.000,238.000,5.000,0
"04/01/08","17:06:30",190490.000,"cc",28301.836,6.00,6,0.100,156493.000,0.200,31357.000,0.300,1735.000,0.500,669.000,1.000,236.000,5.000,0
"04/01/08","17:06:36",267349.000,"cc",28278.279,6.00,6,0.100,222645.000,0.200,41419.000,0.300,2194.000,0.500,838.000,1.000,253.000,5.000,0
"04/01/08","17:06:42",337460.000,"cc",28343.424,6.00,6,0.100,293602.000,0.200,40747.000,0.300,2146.000,0.500,748.000,1.000,217.000,5.000,0
"04/01/08","17:06:48",322472.000,"cc",28369.203,6.00,6,0.100,281452.000,0.200,38071.000,0.300,2036.000,0.500,674.000,1.000,239.000,5.000,0
"04/01/08","17:06:54",335780.000,"cc",28324.383,6.00,6,0.100,291953.000,0.200,40762.000,0.300,2135.000,0.500,690.000,1.000,240.000,5.000,0
"04/01/08","17:07:00",245209.000,"cc",28361.492,6.00,6,0.100,173403.000,0.200,67379.000,0.300,3337.000,0.500,850.000,1.000,240.000,5.000,0
"04/01/08","17:07:06",346655.000,"cc",28271.781,6.00,6,0.100,298068.000,0.200,45223.000,0.300,2366.000,0.500,723.000,1.000,275.000,5.000,0
"04/01/08","17:07:12",169235.000,"cc",28337.113,6.00,6,0.100,102606.000,0.200,62376.000,0.300,3105.000,0.500,837.000,1.000,311.000,5.000,0
"04/01/08","17:07:18",212719.000,"cc",28344.779,6.00,6,0.100,151544.000,0.200,57292.000,0.300,2797.000,0.500,835.000,1.000,251.000,5.000,0
"04/01/08","17:07:24",195800.000,"cc",28303.199,6.00,6,0.100,96215.000,0.200,93573.000,0.300,4747.000,0.500,972.000,1.000,293.000,5.000,0
"04/01/08","17:07:30",221595.000,"cc",28315.340,6.00,6,0.100,109527.000,0.200,105461.000,0.300,5456.000,0.500,881.000,1.000,270.000,5.000,0
"04/01/08","17:07:36",208844.000,"cc",28269.434,6.00,6,0.100,124592.000,0.200,79142.000,0.300,3945.000,0.500,881.000,1.000,284.000,5.000,0
"04/01/08","17:07:42",291487.000,"cc",28327.768,6.00,6,0.100,241603.000,0.200,46593.000,0.300,2350.000,0.500,691.000,1.000,250.000,5.000,0
"04/01/08","17:07:48",264041.000,"cc",28400.455,6.00,6,0.100,206912.000,0.200,53446.000,0.300,2624.000,0.500,795.000,1.000,264.000,5.000,0
"04/01/08","17:07:54",361770.000,"cc",28279.555,6.00,6,0.100,324307.000,0.200,34564.000,0.300,1880.000,0.500,769.000,1.000,250.000,5.000,0
"04/01/08","17:08:00",229616.000,"cc",28353.100,6.00,6,0.100,181068.000,0.200,44950.000,0.300,2441.000,0.500,853.000,1.000,304.000,5.000,0
"04/01/08","17:08:06",319150.000,"cc",28238.065,6.00,6,0.100,276224.000,0.200,39399.000,0.300,2302.000,0.500,883.000,1.000,342.000,5.000,0
"04/01/08","17:08:12",244900.000,"cc",28270.029,6.00,6,0.100,221616.000,0.200,20949.000,0.300,1440.000,0.500,638.000,1.000,257.000,5.000,0
"04/01/08","17:08:18",308605.000,"cc",28281.043,6.00,6,0.100,277846.000,0.200,27972.000,0.300,1787.000,0.500,726.000,1.000,274.000,5.000,0
"04/01/08","17:08:24",254386.000,"cc",28367.850,6.00,6,0.100,230323.000,0.200,21455.000,0.300,1601.000,0.500,723.000,1.000,284.000,5.000,0
"04/01/08","17:08:30",239643.000,"cc",28299.023,6.00,6,0.100,217294.000,0.200,19743.000,0.300,1500.000,0.500,781.000,1.000,325.000,5.000,0
"04/01/08","17:08:36",273203.000,"cc",28264.590,6.00,6,0.100,246695.000,0.200,23580.000,0.300,1820.000,0.500,797.000,1.000,311.000,5.000,0
"04/01/08","17:08:42",290345.000,"cc",28303.022,6.00,6,0.100,260208.000,0.200,26768.000,0.300,2167.000,0.500,884.000,1.000,318.000,5.000,0
"04/01/08","17:08:48",271268.000,"cc",28371.900,6.00,6,0.100,242654.000,0.200,24746.000,0.300,2312.000,0.500,1141.000,1.000,415.000,5.000,0
"04/01/08","17:08:54",259197.000,"cc",28264.291,6.00,6,0.100,231482.000,0.200,23740.000,0.300,2352.000,0.500,1215.000,1.000,408.000,5.000,0
"04/01/08","17:09:00",177168.000,"cc",28360.535,6.00,6,0.100,159184.000,0.200,14940.000,0.300,1659.000,0.500,1025.000,1.000,360.000,5.000,0
"04/01/08","17:09:06",292263.000,"cc",28351.256,6.00,6,0.100,261414.000,0.200,27416.000,0.300,2161.000,0.500,922.000,1.000,350.000,5.000,0
"04/01/08","17:09:12",277143.000,"cc",28257.809,6.00,6,0.100,248418.000,0.200,25537.000,0.300,2049.000,0.500,837.000,1.000,302.000,5.000,0
"04/01/08","17:09:18",334035.000,"cc",28292.598,6.00,6,0.100,285009.000,0.200,44137.000,0.300,3285.000,0.500,1186.000,1.000,418.000,5.000,0
"04/01/08","17:09:24",138137.000,"cc",28331.900,6.00,6,0.100,74968.000,0.200,57816.000,0.300,3850.000,0.500,1154.000,1.000,349.000,5.000,0
"04/01/08","17:09:30",299143.000,"cc",28354.633,6.00,6,0.100,244412.000,0.200,49917.000,0.300,3388.000,0.500,1098.000,1.000,328.000,5.000,0
"04/01/08","17:09:36",328226.000,"cc",28338.736,6.00,6,0.100,291866.000,0.200,32720.000,0.300,2404.000,0.500,902.000,1.000,334.000,5.000,0
"04/01/08","17:09:42",197930.000,"cc",28346.293,6.00,6,0.100,106391.000,0.200,83946.000,0.300,5883.000,0.500,1332.000,1.000,378.000,5.000,0
"04/01/08","17:09:48",194359.000,"cc",28329.375,6.00,6,0.100,104287.000,0.200,82979.000,0.300,5686.000,0.500,1101.000,1.000,306.000,5.000,0
"04/01/08","17:09:54",198036.000,"cc",28266.465,6.00,6,0.100,105143.000,0.200,85541.000,0.300,5925.000,0.500,1116.000,1.000,311.000,5.000,0
"04/01/08","17:10:00",249383.000,"cc",28305.650,6.00,6,0.100,162368.000,0.200,79655.000,0.300,5702.000,0.500,1281.000,1.000,377.000,5.000,0
"04/01/08","17:10:06",333990.000,"cc",28330.875,6.00,6,0.100,282356.000,0.200,47093.000,0.300,3308.000,0.500,919.000,1.000,314.000,5.000,0
"04/01/08","17:10:12",186490.000,"cc",28342.955,6.00,6,0.100,102793.000,0.200,76799.000,0.300,5303.000,0.500,1229.000,1.000,366.000,5.000,0
"04/01/08","17:10:18",264806.000,"cc",28316.256,6.00,6,0.100,199450.000,0.200,59303.000,0.300,4399.000,0.500,1268.000,1.000,386.000,5.000,0
"04/01/08","17:10:24",312727.000,"cc",28268.309,6.00,6,0.100,252401.000,0.200,54835.000,0.300,3895.000,0.500,1220.000,1.000,376.000,5.000,0
"04/01/08","17:10:30",258412.000,"cc",28331.080,6.00,6,0.100,194500.000,0.200,58431.000,0.300,3972.000,0.500,1150.000,1.000,359.000,5.000,0
"04/01/08","17:10:36",304206.000,"cc",28353.902,6.00,6,0.100,268464.000,0.200,32199.000,0.300,2368.000,0.500,885.000,1.000,290.000,5.000,0
"04/01/08","17:10:42",237776.000,"cc",28308.965,6.00,6,0.100,178551.000,0.200,53255.000,0.300,4233.000,0.500,1345.000,1.000,392.000,5.000,0
"04/01/08","17:10:48",295696.000,"cc",28255.846,6.00,6,0.100,249934.000,0.200,40462.000,0.300,3553.000,0.500,1354.000,1.000,393.000,5.000,0
"04/01/08","17:10:54",232669.000,"cc",28336.402,6.00,6,0.100,207114.000,0.200,22285.000,0.300,1999.000,0.500,986.000,1.000,285.000,5.000,0
"04/01/08","17:11:00",357040.000,"cc",28374.594,6.00,6,0.100,312100.000,0.200,39812.000,0.300,3399.000,0.500,1321.000,1.000,408.000,5.000,0
"04/01/08","17:11:06",314000.000,"cc",28281.641,6.00,6,0.100,278197.000,0.200,31827.000,0.300,2620.000,0.500,1034.000,1.000,322.000,5.000,0
"04/01/08","17:11:12",301150.000,"cc",28321.459,6.00,6,0.100,266602.000,0.200,30656.000,0.300,2532.000,0.500,1056.000,1.000,304.000,5.000,0
"04/01/08","17:11:18",226308.000,"cc",28347.973,6.00,6,0.100,201538.000,0.200,21324.000,0.300,2190.000,0.500,972.000,1.000,284.000,5.000,0
"04/01/08","17:11:24",226430.000,"cc",28321.236,6.00,6,0.100,199723.000,0.200,22823.000,0.300,2466.000,0.500,1078.000,1.000,340.000,5.000,0
"04/01/08","17:11:30",228963.000,"cc",28280.639,6.00,6,0.100,202819.000,0.200,22317.000,0.300,2446.000,0.500,1062.000,1.000,319.000,5.000,0
"04/01/08","17:11:36",216781.000,"cc",28284.496,6.00,6,0.100,192154.000,0.200,21032.000,0.300,2280.000,0.500,987.000,1.000,328.000,5.000,0
"04/01/08","17:11:42",247996.000,"cc",28369.156,6.00,6,0.100,218823.000,0.200,25167.000,0.300,2631.000,0.500,1023.000,1.000,352.000,5.000,0
"04/01/08","17:11:48",311726.000,"cc",28319.959,6.00,6,0.100,270525.000,0.200,36140.000,0.300,3595.000,0.500,1102.000,1.000,364.000,5.000,0
"04/01/08","17:11:54",296658.000,"cc",28297.193,6.00,6,0.100,257982.000,0.200,33773.000,0.300,3499.000,0.500,1111.000,1.000,293.000,5.000,0
"04/01/08","17:12:00",261647.000,"cc",28290.045,6.00,6,0.100,227882.000,0.200,29199.000,0.300,3129.000,0.500,1089.000,1.000,348.000,5.000,0
"04/01/08","17:12:06",212255.000,"cc",28306.648,6.00,6,0.100,185346.000,0.200,22645.000,0.300,2753.000,0.500,1128.000,1.000,383.000,5.000,0
"04/01/08","17:12:12",167010.000,"cc",28330.303,6.00,6,0.100,146915.000,0.200,16497.000,0.300,2194.000,0.500,1024.000,1.000,380.000,5.000,0
"04/01/08","17:12:18",309229.000,"cc",28303.695,6.00,6,0.100,267497.000,0.200,35881.000,0.300,3909.000,0.500,1477.000,1.000,465.000,5.000,0
"04/01/08","17:12:24",214867.000,"cc",28336.488,6.00,6,0.100,188338.000,0.200,22452.000,0.300,2547.000,0.500,1155.000,1.000,375.000,5.000,0
"04/01/08","17:12:30",202741.000,"cc",28354.275,6.00,6,0.100,178697.000,0.200,20533.000,0.300,2219.000,0.500,981.000,1.000,311.000,5.000,0
"04/01/08","17:12:36",184922.000,"cc",28256.387,6.00,6,0.100,163687.000,0.200,18158.000,0.300,1856.000,0.500,905.000,1.000,316.000,5.000,0
"04/01/08","17:12:42",292514.000,"cc",28321.732,6.00,6,0.100,255006.000,0.200,33289.000,0.300,2805.000,0.500,1073.000,1.000,341.000,5.000,0
"04/01/08","17:12:48",235700.000,"cc",28328.357,6.00,6,0.100,207451.000,0.200,24876.000,0.300,2180.000,0.500,896.000,1.000,297.000,5.000,0
"04/01/08","17:12:54",209236.000,"cc",28368.229,6.00,6,0.100,183159.000,0.200,22172.000,0.300,2398.000,0.500,1088.000,1.000,419.000,5.000,0
"04/01/08","17:13:00",174139.000,"cc",28324.891,6.00,6,0.100,152089.000,0.200,17750.000,0.300,2529.000,0.500,1321.000,1.000,450.000,5.000,0
"04/01/08","17:13:06",107875.000,"cc",28314.043,6.00,6,0.100,94184.000,0.200,10131.000,0.300,1847.000,0.500,1224.000,1.000,489.000,5.000,0
"04/01/08","17:13:12",100133.000,"cc",28288.707,6.00,6,0.100,86748.000,0.200,9502.000,0.300,1937.000,0.500,1429.000,1.000,516.000,5.000,1.000
"04/01/08","17:13:18",160844.000,"cc",28265.594,6.00,6,0.100,140100.000,0.200,16252.000,0.300,2526.000,0.500,1446.000,1.000,520.000,5.000,0
"04/01/08","17:13:24",128399.000,"cc",28325.201,6.00,6,0.100,112296.000,0.200,12301.000,0.300,2039.000,0.500,1292.000,1.000,471.000,5.000,0
"04/01/08","17:13:30",167563.000,"cc",28327.986,6.00,6,0.100,145998.000,0.200,17229.000,0.300,2476.000,0.500,1409.000,1.000,451.000,5.000,0
"04/01/08","17:13:36",173639.000,"cc",28355.850,6.00,6,0.100,152329.000,0.200,17488.000,0.300,2270.000,0.500,1161.000,1.000,391.000,5.000,0
"04/01/08","17:13:42",112851.000,"cc",28373.736,6.00,6,0.100,99699.000,0.200,10432.000,0.300,1508.000,0.500,888.000,1.000,324.000,5.000,0
"04/01/08","17:13:48",70196.000,"cc",28263.354,6.00,6,0.100,62281.000,0.200,5867.000,0.300,1057.000,0.500,735.000,1.000,256.000,5.000,0
"04/01/08","17:13:54",74143.000,"cc",28318.734,6.00,6,0.100,65345.000,0.200,6450.000,0.300,1188.000,0.500,881.000,1.000,279.000,5.000,0
"04/01/08","17:14:00",59393.000,"cc",28347.260,6.00,6,0.100,52499.000,0.200,4919.000,0.300,968.000,0.500,718.000,1.000,289.000,5.000,0
"04/01/08","17:14:06",134130.000,"cc",28226.676,6.00,6,0.100,119275.000,0.200,12407.000,0.300,1320.000,0.500,837.000,1.000,291.000,5.000,0
"04/01/08","17:14:12",166236.000,"cc",28280.443,6.00,6,0.100,146832.000,0.200,16049.000,0.300,1857.000,0.500,1091.000,1.000,407.000,5.000,0
"04/01/08","17:14:18",226708.000,"cc",28368.270,6.00,6,0.100,197283.000,0.200,23807.000,0.300,3074.000,0.500,1819.000,1.000,725.000,5.000,0
"04/01/08","17:14:24",86212.000,"cc",28350.191,6.00,6,0.100,76397.000,0.200,7383.000,0.300,1214.000,0.500,884.000,1.000,334.000,5.000,0
"04/01/08","17:14:30",79869.000,"cc",28337.484,6.00,6,0.100,71132.000,0.200,6783.000,0.300,948.000,0.500,741.000,1.000,265.000,5.000,0
"04/01/08","17:14:36",112673.000,"cc",28260.106,6.00,6,0.100,99938.000,0.200,10089.000,0.300,1377.000,0.500,918.000,1.000,351.000,5.000,0
"04/01/08","17:14:42",124833.000,"cc",28280.895,6.00,6,0.100,110032.000,0.200,11440.000,0.300,1741.000,0.500,1204.000,1.000,416.000,5.000,0
"04/01/08","17:14:48",112210.000,"cc",28325.133,6.00,6,0.100,99060.000,0.200,10112.000,0.300,1547.000,0.500,1077.000,1.000,414.000,5.000,0
"04/01/08","17:14:54",117937.000,"cc",28331.949,6.00,6,0.100,103319.000,0.200,11044.000,0.300,1831.000,0.500,1268.000,1.000,475.000,5.000,0
"04/01/08","17:15:00",94484.000,"cc",28301.570,6.00,6,0.100,83170.000,0.200,8280.000,0.300,1508.000,0.500,1113.000,1.000,413.000,5.000,0
"04/01/08","17:15:06",132824.000,"cc",28360.967,6.00,6,0.100,117751.000,0.200,12037.000,0.300,1556.000,0.500,1094.000,1.000,386.000,5.000,0
"04/01/08","17:15:12",200593.000,"cc",28324.693,6.00,6,0.100,177745.000,0.200,19655.000,0.300,1789.000,0.500,1032.000,1.000,371.000,5.000,1.000
"04/01/08","17:15:18",208962.000,"cc",28356.307,6.00,6,0.100,184989.000,0.200,20922.000,0.300,1791.000,0.500,922.000,1.000,338.000,5.000,0
"04/01/08","17:15:24",295900.000,"cc",28343.736,6.00,6,0.100,260462.000,0.200,31769.000,0.300,2271.000,0.500,1068.000,1.000,330.000,5.000,0
"04/01/08","17:15:30",260957.000,"cc",28278.686,6.00,6,0.100,230308.000,0.200,27252.000,0.300,2116.000,0.500,940.000,1.000,341.000,5.000,0
"04/01/08","17:15:36",155254.000,"cc",28324.127,6.00,6,0.100,138487.000,0.200,14315.000,0.300,1364.000,0.500,782.000,1.000,306.000,5.000,0
"04/01/08","17:15:42",241718.000,"cc",28313.258,6.00,6,0.100,213759.000,0.200,24758.000,0.300,2012.000,0.500,901.000,1.000,288.000,5.000,0
"04/01/08","17:15:48",134470.000,"cc",28359.535,6.00,6,0.100,119949.000,0.200,12338.000,0.300,1249.000,0.500,679.000,1.000,255.000,5.000,0
"04/01/08","17:15:54",331175.000,"cc",28357.231,6.00,6,0.100,287304.000,0.200,39339.000,0.300,3047.000,0.500,1093.000,1.000,392.000,5.000,0
"04/01/08","17:16:00",229842.000,"cc",28316.996,6.00,6,0.100,203435.000,0.200,23012.000,0.300,2056.000,0.500,981.000,1.000,358.000,5.000,0
"04/01/08","17:16:06",189312.000,"cc",28274.652,6.00,6,0.100,168095.000,0.200,18407.000,0.300,1696.000,0.500,818.000,1.000,296.000,5.000,0
"04/01/08","17:16:12",194874.000,"cc",28301.402,6.00,6,0.100,173148.000,0.200,18731.000,0.300,1733.000,0.500,928.000,1.000,333.000,5.000,1.000